Location: Berlin
(42.3812°N, 71.6370°W)
Time: 23:39:50
(UTC+00:00)

Cosmos 2221 Rocket - Pass Details

Date: 15 November 2025
Orbit: 615 x 642 km, 82.5° (Epoch: 09 December)

Event Time Altitude Azimuth Distance (km) Brightness Sun altitude
Rises 10:43:33 0° 191° (S) 2,932 7.1 -10.2°
Reaches altitude 10° 10:45:47 10° 193° (SSW) 2,029 6.3 -9.8°
Maximum altitude 10:50:17 75° 278° (W) 671 3.6 -9.0°
Drops below altitude 10° 10:54:50 10° 5° (N) 2,046 6.1 -8.2°
Sets 10:57:06 0° 7° (N) 2,959 6.9 -7.8°
